NORTHERN NASSAU  -  Areal Flood Advisory Areal Flood Advisory     Flash Flood Watch Flash Flood Watch     Rip Current Statement Rip Current Statement        NORTHERN QUEENS  -  Areal Flood Advisory Areal Flood Advisory     Flash Flood Watch Flash Flood Watch     Rip Current Statement Rip Current Statement        SOUTHERN NASSAU  -  Areal Flood Advisory Areal Flood Advisory     Flash Flood Watch Flash Flood Watch     Rip Current Statement Rip Current Statement        SOUTHERN QUEENS  -  Areal Flood Advisory Areal Flood Advisory     Flash Flood Watch Flash Flood Watch     Rip Current Statement Rip Current Statement        NORTHEAST SUFFOLK  -  Rip Current Statement Rip Current Statement        NORTHWEST SUFFOLK  -  Rip Current Statement Rip Current Statement        SOUTHEAST SUFFOLK  -  Rip Current Statement Rip Current Statement        SOUTHWEST SUFFOLK  -  Rip Current Statement Rip Current Statement      

Active alerts

Northern Queens
  Details for Northern Queens Areal Flood Advisory  +2 additional alerts
Southern Queens
  Details for Southern Queens Areal Flood Advisory  +2 additional alerts
Northern Nassau
  Details for Northern Nassau Areal Flood Advisory  +2 additional alerts
Southern Nassau
  Details for Southern Nassau Areal Flood Advisory  +2 additional alerts
Northwest Suffolk
  Details for Northwest Suffolk Rip Current Statement
Southwest Suffolk
  Details for Southwest Suffolk Rip Current Statement
Northeast Suffolk
  Details for Northeast Suffolk Rip Current Statement
Southeast Suffolk
  Details for Southeast Suffolk Rip Current Statement


WXM80 ListenWXM80 Stop

You find our weather info also at:

UK Metoffice

WeatherCloud

Weather Underground

Northeastern Weather Network

AWEKAS

Citizen Weather Observer Program (CWOP)

HAMweather, WeatherForYou, PWS Weather


Weather Underground History page Text

Daily Summary for Nil La, TWC- Units:  Metric    English   Both
« Previous Day
Next Day »
Daily Weekly Monthly Yearly Custom
  High: Low: Average:
Temperature: 29.2 °C 23.7 °C 25.1 °C
Dew Point: 25.8 °C 21.2 °C 23.3 °C
Humidity: 94 % 81 % 90 %
Wind Speed: 8 km/h 0 km/h 2.1 km/h
Wind Gust: 24.1 km/h - -
Wind:- - South
Pressure: 1012.8 hPa 1005.3 hPa -
Precipitation: 0 mm    
Historical Graphs
 
 
Tabular Data for Nil La, TWC-
Time Temperature Dew Point Pressure Wind Wind Speed Wind Gust Humidity Rainfall Rate (Hourly)
00:04 23.7 °C 21.2 °C 1012.8 hPa SE 1.4 km/h 1.6 km/h 86 % 0 mm
00:09 23.7 °C 21.2 °C 1012.8 hPa Calm     86 % 0 mm
00:14 23.7 °C 21.2 °C 1012.8 hPa SE 1.6 km/h 6.4 km/h 86 % 0 mm
00:19 23.8 °C 21.3 °C 1012.4 hPa SE 4.7 km/h 7.4 km/h 86 % 0 mm
00:24 23.8 °C 21.3 °C 1012.4 hPa SE 2.9 km/h 3.2 km/h 86 % 0 mm
00:29 23.9 °C 21.4 °C 1012.4 hPa SE 1.4 km/h 8 km/h 86 % 0 mm
00:34 23.9 °C 21.4 °C 1012.1 hPa SE 1 km/h 6.4 km/h 86 % 0 mm
00:39 24 °C 21.5 °C 1012.1 hPa SSE 0.2 km/h 1.9 km/h 86 % 0 mm
00:44 24 °C 21.5 °C 1012.1 hPa Calm     86 % 0 mm
00:49 24.1 °C 21.6 °C 1012.1 hPa SE 1.4 km/h 11.1 km/h 86 % 0 mm
00:54 24.1 °C 21.6 °C 1011.7 hPa SE 1.6 km/h 3.7 km/h 86 % 0 mm
00:59 24.1 °C 21.6 °C 1011.7 hPa Calm   5.6 km/h 86 % 0 mm
01:04 24.2 °C 21.9 °C 1011.7 hPa SE 0.2 km/h 7.4 km/h 87 % 0 mm
01:09 24.2 °C 21.9 °C 1011.4 hPa SE 2.6 km/h 7.4 km/h 87 % 0 mm
01:14 24.2 °C 21.9 °C 1011.4 hPa SE 1.1 km/h 11.1 km/h 87 % 0 mm
01:19 24.2 °C 21.9 °C 1011.4 hPa Calm     87 % 0 mm
01:24 24.3 °C 22 °C 1011.4 hPa SE 8 km/h 14.8 km/h 87 % 0 mm
01:29 24.3 °C 22.2 °C 1011.4 hPa SE 1.6 km/h 11.1 km/h 88 % 0 mm
01:34 24.3 °C 22.2 °C 1011.4 hPa SE 4.3 km/h 5.6 km/h 88 % 0 mm
01:39 24.3 °C 22.2 °C 1011.1 hPa Calm   3.7 km/h 88 % 0 mm
01:44 24.3 °C 22.2 °C 1011.1 hPa SSE 0.6 km/h 4.8 km/h 88 % 0 mm
01:49 24.3 °C 22.4 °C 1011.1 hPa SE 0.2 km/h 9.3 km/h 89 % 0 mm
01:54 24.3 °C 22.6 °C 1011.1 hPa SE 0.8 km/h 7.4 km/h 90 % 0 mm
01:59 24.3 °C 22.6 °C 1011.1 hPa Calm   5.6 km/h 90 % 0 mm
02:04 24.2 °C 22.7 °C 1010.7 hPa SE 0.5 km/h 11.1 km/h 91 % 0 mm
02:09 24.2 °C 22.6 °C 1010.7 hPa Calm   3.7 km/h 91 % 0 mm
02:14 24.2 °C 22.6 °C 1010.4 hPa SSE 2.6 km/h 9.7 km/h 91 % 0 mm
02:19 24.2 °C 22.7 °C 1010.7 hPa SE 3.4 km/h 6.4 km/h 91 % 0 mm
02:24 24.2 °C 22.8 °C 1010.4 hPa SE 3.5 km/h 7.4 km/h 92 % 0 mm
02:29 24.3 °C 22.7 °C 1010.4 hPa South 1.1 km/h 7.4 km/h 91 % 0 mm
02:34 24.3 °C 22.8 °C 1010.4 hPa South 1.9 km/h 5.6 km/h 91 % 0 mm
02:39 24.4 °C 22.8 °C 1010 hPa SSW 5 km/h 16.7 km/h 91 % 0 mm
02:44 24.4 °C 22.9 °C 1010 hPa South 4.2 km/h 14.8 km/h 91 % 0 mm
02:49 24.4 °C 22.9 °C 1010 hPa SSE 1.4 km/h 11.1 km/h 91 % 0 mm
02:54 24.5 °C 22.9 °C 1010 hPa South 1.4 km/h 9.3 km/h 91 % 0 mm
02:59 24.6 °C 22.8 °C 1010 hPa South 2.7 km/h 7.4 km/h 90 % 0 mm
03:04 24.6 °C 22.8 °C 1010 hPa South 1.4 km/h 5.6 km/h 90 % 0 mm
03:09 24.6 °C 22.8 °C 1009.7 hPa SSE 4.2 km/h 18.5 km/h 90 % 0 mm
03:14 24.7 °C 22.9 °C 1009.7 hPa SSE 3.2 km/h 6.4 km/h 90 % 0 mm
03:19 24.7 °C 22.9 °C 1009.7 hPa SSW 5.3 km/h 11.3 km/h 90 % 0 mm
03:24 24.8 °C 23 °C 1009.4 hPa South 2.6 km/h 13 km/h 90 % 0 mm
03:29 24.8 °C 23 °C 1009.4 hPa SW 4.2 km/h 7.4 km/h 90 % 0 mm
03:34 24.8 °C 23.1 °C 1009.4 hPa SSW 1.3 km/h 9.3 km/h 90 % 0 mm
03:39 24.8 °C 23.1 °C 1009 hPa South 2.4 km/h 9.3 km/h 90 % 0 mm
03:44 24.8 °C 23.1 °C 1009 hPa SSW 4.7 km/h 9.7 km/h 90 % 0 mm
03:49 24.8 °C 23.1 °C 1009 hPa South 5 km/h 14.8 km/h 90 % 0 mm
03:54 24.8 °C 23.2 °C 1009 hPa South 3.7 km/h 7.4 km/h 91 % 0 mm
03:59 24.8 °C 23.2 °C 1009 hPa West 1.8 km/h 6.4 km/h 91 % 0 mm
04:04 24.7 °C 23.2 °C 1009 hPa SW 4.8 km/h 17.7 km/h 91 % 0 mm
04:09 24.7 °C 23.2 °C 1009 hPa SSW 5.3 km/h 19.3 km/h 91 % 0 mm
04:14 24.7 °C 23.2 °C 1008.7 hPa South 0.6 km/h 5.6 km/h 91 % 0 mm
04:19 24.7 °C 23.1 °C 1008.7 hPa SW 1 km/h 5.6 km/h 91 % 0 mm
04:24 24.7 °C 23.1 °C 1008.7 hPa South 4.5 km/h 6.4 km/h 91 % 0 mm
04:29 24.6 °C 23.1 °C 1008.7 hPa SSW 2.3 km/h 7.4 km/h 91 % 0 mm
04:34 24.6 °C 23.1 °C 1008.7 hPa SSW 4.7 km/h 18.5 km/h 91 % 0 mm
04:39 24.6 °C 23 °C 1008.7 hPa SSW 3.9 km/h 9.3 km/h 91 % 0 mm
04:44 24.6 °C 23 °C 1008.7 hPa SSW 2.6 km/h 9.3 km/h 91 % 0 mm
04:49 24.6 °C 23.2 °C 1008.7 hPa SW 0.8 km/h 5.6 km/h 92 % 0 mm
04:54 24.5 °C 23.1 °C 1008.7 hPa SSW 1.1 km/h 9.3 km/h 92 % 0 mm
04:59 24.5 °C 23.1 °C 1008.7 hPa SSW 1.8 km/h 5.6 km/h 92 % 0 mm
05:04 24.5 °C 23.1 °C 1008.7 hPa South 1.9 km/h 7.4 km/h 92 % 0 mm
05:09 24.4 °C 23.1 °C 1008.7 hPa SSW 4.2 km/h 6.4 km/h 92 % 0 mm
05:14 24.4 °C 23.1 °C 1008.7 hPa SW 2.4 km/h 9.3 km/h 92 % 0 mm
05:19 24.4 °C 23.1 °C 1008.4 hPa SSE 0.5 km/h 7.4 km/h 92 % 0 mm
05:24 24.4 °C 23.1 °C 1008 hPa SW 4 km/h 8 km/h 92 % 0 mm
05:29 24.4 °C 23.1 °C 1008.4 hPa SW 2.4 km/h 3.7 km/h 92 % 0 mm
05:34 24.4 °C 23.1 °C 1008 hPa SSE 1.3 km/h 3.7 km/h 92 % 0 mm
05:39 24.4 °C 23.1 °C 1008 hPa Calm     92 % 0 mm
05:44 24.4 °C 23.1 °C 1008 hPa SW 5 km/h 13 km/h 92 % 0 mm
05:49 24.4 °C 23.1 °C 1008 hPa SSW 5 km/h 11.1 km/h 92 % 0 mm
05:54 24.4 °C 23.1 °C 1008 hPa WSW 3.1 km/h 9.7 km/h 92 % 0 mm
05:59 24.4 °C 23.1 °C 1008 hPa SSE 6 km/h 14.8 km/h 92 % 0 mm
06:04 24.4 °C 23.1 °C 1008 hPa Calm     92 % 0 mm
06:09 24.4 °C 23.1 °C 1008 hPa South 0.8 km/h 1.9 km/h 92 % 0 mm
06:14 24.4 °C 23.2 °C 1007.7 hPa SSW 2.4 km/h 14.8 km/h 93 % 0 mm
06:19 24.4 °C 23.2 °C 1007.7 hPa SSW 1.8 km/h 5.6 km/h 93 % 0 mm
06:24 24.4 °C 23.2 °C 1007.7 hPa SW 0.8 km/h 11.1 km/h 93 % 0 mm
06:29 24.4 °C 23.2 °C 1008 hPa South 1 km/h 5.6 km/h 93 % 0 mm
06:34 24.4 °C 23.2 °C 1007.7 hPa SE 1.8 km/h 5.6 km/h 93 % 0 mm
06:39 24.4 °C 23.2 °C 1007.7 hPa SSE 0.3 km/h 3.7 km/h 93 % 0 mm
06:44 24.4 °C 23.2 °C 1007.7 hPa South 3.1 km/h 5.6 km/h 93 % 0 mm
06:49 24.4 °C 23.2 °C 1007.7 hPa SSW 1.1 km/h 7.4 km/h 93 % 0 mm
06:54 24.3 °C 23.1 °C 1007.7 hPa South 1 km/h 5.6 km/h 93 % 0 mm
06:59 24.4 °C 23.2 °C 1007.7 hPa SSW 0.3 km/h 11.1 km/h 93 % 0 mm
07:04 24.3 °C 23.3 °C 1007.7 hPa SSE 0.5 km/h 11.1 km/h 94 % 0 mm
07:09 24.3 °C 23.3 °C 1007.7 hPa South 3.2 km/h 13 km/h 94 % 0 mm
07:14 24.3 °C 23.3 °C 1007.7 hPa Calm   3.7 km/h 94 % 0 mm
07:19 24.3 °C 23.3 °C 1007.7 hPa South 0.8 km/h 3.2 km/h 94 % 0 mm
07:24 24.3 °C 23.3 °C 1007.7 hPa SW 1.3 km/h 1.6 km/h 94 % 0 mm
07:29 24.3 °C 23.3 °C 1007.7 hPa South 3.1 km/h 5.6 km/h 94 % 0 mm
07:34 24.4 °C 23.3 °C 1007.7 hPa WSW 0.3 km/h 3.7 km/h 94 % 0 mm
07:39 24.4 °C 23.4 °C 1007.7 hPa SSW 1.4 km/h 7.4 km/h 94 % 0 mm
07:44 24.4 °C 23.4 °C 1007.3 hPa SE 4.5 km/h 7.4 km/h 94 % 0 mm
07:49 24.5 °C 23.4 °C 1007.3 hPa SSW 1.4 km/h 11.1 km/h 94 % 0 mm
07:54 24.6 °C 23.5 °C 1007.3 hPa SSW 3.1 km/h 6.4 km/h 94 % 0 mm
07:59 24.6 °C 23.6 °C 1007.3 hPa SW 2.1 km/h 7.4 km/h 94 % 0 mm
08:04 24.7 °C 23.6 °C 1007.3 hPa SW 4.8 km/h 14.8 km/h 94 % 0 mm
08:09 24.7 °C 23.7 °C 1007.3 hPa SSW 6 km/h 20.4 km/h 94 % 0 mm
08:14 24.7 °C 23.7 °C 1007 hPa SSW 4 km/h 5.6 km/h 94 % 0 mm
08:19 24.8 °C 23.6 °C 1007 hPa SSW 0.2 km/h 6.4 km/h 93 % 0 mm
08:24 24.8 °C 23.6 °C 1007 hPa SSE 2.1 km/h 8 km/h 93 % 0 mm
08:29 24.8 °C 23.6 °C 1007 hPa SSW 3.2 km/h 13 km/h 93 % 0 mm
08:34 24.9 °C 23.7 °C 1007 hPa Calm   5.6 km/h 93 % 0 mm
08:39 24.9 °C 23.7 °C 1006.7 hPa SSW 2.7 km/h 7.4 km/h 93 % 0 mm
08:44 25.1 °C 23.8 °C 1006.7 hPa South 3.2 km/h 7.4 km/h 93 % 0 mm
08:49 25.1 °C 23.9 °C 1006.7 hPa SSW 4.8 km/h 7.4 km/h 93 % 0 mm
08:54 25.2 °C 23.9 °C 1006.7 hPa SE 2.3 km/h 5.6 km/h 93 % 0 mm
08:59 25.2 °C 23.9 °C 1006.7 hPa South 1.1 km/h 5.6 km/h 93 % 0 mm
09:04 25.2 °C 23.8 °C 1006.7 hPa WSW 0.6 km/h 1.9 km/h 92 % 0 mm
09:09 25.2 °C 23.8 °C 1006.7 hPa SSW 2.1 km/h 5.6 km/h 92 % 0 mm
09:14 25.3 °C 23.9 °C 1007 hPa South 1.4 km/h 8 km/h 92 % 0 mm
09:19 25.3 °C 23.9 °C 1007 hPa SSW 1 km/h 3.7 km/h 92 % 0 mm
09:24 25.4 °C 24.1 °C 1006.7 hPa SSW 4.3 km/h 6.4 km/h 92 % 0 mm
09:29 25.6 °C 24.2 °C 1006.7 hPa SSW 1.4 km/h 5.6 km/h 92 % 0 mm
09:34 25.7 °C 24.3 °C 1006.7 hPa South 0.8 km/h 5.6 km/h 92 % 0 mm
09:39 25.8 °C 24.4 °C 1006.7 hPa South 2.9 km/h 5.6 km/h 92 % 0 mm
09:44 25.9 °C 24.3 °C 1006.7 hPa WSW 0.5 km/h 5.6 km/h 91 % 0 mm
09:49 25.9 °C 24.3 °C 1006.7 hPa SSW 1.1 km/h 5.6 km/h 91 % 0 mm
09:54 26.1 °C 24.4 °C 1006.7 hPa SSW 7.6 km/h 11.1 km/h 91 % 0 mm
09:59 26.2 °C 24.4 °C 1006.3 hPa SSW 7.1 km/h 14.8 km/h 90 % 0 mm
10:04 26.3 °C 24.5 °C 1006.3 hPa South 1 km/h 7.4 km/h 90 % 0 mm
10:09 26.4 °C 24.6 °C 1006.7 hPa WSW 0.6 km/h 5.6 km/h 90 % 0 mm
10:14 26.4 °C 24.5 °C 1006.7 hPa SW 0.6 km/h 18.5 km/h 89 % 0 mm
10:19 26.5 °C 24.6 °C 1006.3 hPa SSW 2.7 km/h 24.1 km/h 89 % 0 mm
10:24 26.5 °C 24.6 °C 1006.3 hPa South 0.6 km/h 7.4 km/h 89 % 0 mm
10:29 26.6 °C 24.4 °C 1006.3 hPa South 0.3 km/h 5.6 km/h 88 % 0 mm
10:34 26.7 °C 24.7 °C 1006.7 hPa South 1.1 km/h 1.9 km/h 89 % 0 mm
10:39 26.8 °C 24.6 °C 1006.3 hPa South 0.3 km/h 3.7 km/h 88 % 0 mm
10:44 26.9 °C 24.7 °C 1006.3 hPa SW 0.6 km/h 9.7 km/h 88 % 0 mm
10:49 27 °C 24.8 °C 1006.3 hPa SSW 0.2 km/h 1.9 km/h 88 % 0 mm
10:54 27.1 °C 24.7 °C 1006.3 hPa South 0.3 km/h 5.6 km/h 87 % 0 mm
10:59 27.2 °C 24.8 °C 1006.3 hPa SW 0.6 km/h 1.9 km/h 87 % 0 mm
11:04 27.3 °C 24.9 °C 1006.3 hPa WSW 2.3 km/h 4.8 km/h 87 % 0 mm
11:09 27.4 °C 25.1 °C 1006.3 hPa SW 1.1 km/h 3.7 km/h 87 % 0 mm
11:14 27.5 °C 24.9 °C 1006 hPa SSW 1.8 km/h 5.6 km/h 86 % 0 mm
11:19 27.7 °C 25.1 °C 1006 hPa WSW 3.1 km/h 9.7 km/h 86 % 0 mm
11:24 27.9 °C 25.3 °C 1006 hPa SSW 0.3 km/h 5.6 km/h 86 % 0 mm
11:29 28.2 °C 25.4 °C 1006 hPa WSW 3.2 km/h 5.6 km/h 85 % 0 mm
11:34 28.3 °C 25.6 °C 1006 hPa Calm   7.4 km/h 85 % 0 mm
11:39 28.6 °C 25.6 °C 1006 hPa SSW 3.9 km/h 13 km/h 84 % 0 mm
11:44 28.8 °C 25.8 °C 1006 hPa Calm   3.7 km/h 84 % 0 mm
11:49 28.9 °C 25.5 °C 1006 hPa Calm     82 % 0 mm
11:54 29 °C 25.6 °C 1005.6 hPa SSW 1.1 km/h 13 km/h 82 % 0 mm
11:59 29.1 °C 25.7 °C 1005.6 hPa SW 2.1 km/h 4.8 km/h 82 % 0 mm
12:04 29.2 °C 25.6 °C 1005.6 hPa SW 1.3 km/h 11.1 km/h 81 % 0 mm
12:09 29.2 °C 25.6 °C 1005.3 hPa WSW 1.1 km/h 5.6 km/h 81 % 0 mm
Crab Meadow Weather
Compliments of Weather Underground - 2.25 mb

Script developed by  Jim McMurry - jmcmurry@mwt.net Adapted for the template by  Wim van der Kuil - Leuven-Template.eu

Extremes: In Wyndham, Australia, the temperature reached 90 degrees F for 333 days in 1946.